Brandon Municipal Airport
CYBR : now visible

Airfield :











YOU CAN JOIN US ON...

 
LOGIN :

Register | Disclaimer

   EN    FR    IT 

 









Legend :    VFR   Marginal VFR   IFR   Intensive IFR   Very Intensive IFR
Visi :
Ceiling :
>= 8 km
>= 3000ft
5 to 8 km
1000 to 3000 ft
1500m to 5 km
500 to 1000 ft
800 to 1500m
200 to 500 ft
< 800m
< 200 ft
Symbols :   Thunderstorms  Fog  Heavy snow  Heavy precipitations  Wind > 20 kt






- Airport Elevation : 1343 ft
- IATA code : YBR


CYBR - Brandon Municipal

CURRENT METAR :
  • 260500Z 14018G24KT 15SM BKN250 06/M01 A2985 RMK CI7 SLP125

EXPIRED METARs :
  • 260400Z 14017G24KT 15SM FEW090 BKN250 06/M01 A2988 RMK AC1CI6 SLP136
  • 260300Z 13014KT 15SM FEW090 BKN250 07/M00 A2989 RMK AC1CI6 SLP140

TAF TAF CYBR
Valid from the 26 at 00:00 until the 26 at 12:00 UTC


252338Z 2600/2612 14018G28KT P6SM FEW040 SCT100 BKN250 RMK NXT FCST BY 260600Z
CZWG FIR / North America



MET'MAP, your aeronautical weather chart ! - Copyright ORBIFLY December 2007 - Disclaimer

ORBIFLY MET'MAP TEAM :

Programming & Development : Alexandra Zaïnal
Concept & original design : Baudouin d'Aumeries
Assistance for programming : Marc-Olivier Méhu
Technical & hardware support : Manuel Goepfert

Contact : metmap@orbifly.com




SOURCES & CREDITS :

   NOAA       Earth
Advisory